Location: Colonia Mina de C?rbuni
(46.1667°N, 22.7167°E)
Time: 14:40:22
(UTC+00:00)

S-56A Canister/Altair - Pass Details

Date: 18 April 2024
Orbit: 638 x 2488 km, 38.9° (Epoch: 19 May)

Event Time Altitude Azimuth Distance (km) Brightness Sun altitude
Rises 20:04:38 0° 272° (W) 4,103 11.8 -24.2°
Reaches altitude 10° 20:07:14 10° 266° (W) 3,358 11.2 -24.5°
Maximum altitude 20:15:22 44° 198° (SSW) 2,265 9.6 -25.3°
Enters shadow 20:18:18 38° 165° (SSE) 2,626 9.7 -25.6°
